This is the latest recevied weather packets stored in our database for station/object IZ1UQG-2. If no packets are shown the sender has not sent any weather packets the latest 10 day(s).
| Time | Temp. | Humidity | Pressure | Rain* | Wind** | Luminosity | Snow |
|---|---|---|---|---|---|---|---|
| 1778009469 | 12.22° C | 90% | 1011.2 hPa | 0.25 mm | - | 0 W/m² | - |
| 1778009044 | 12.22° C | 90% | 1011.2 hPa | 0.25 mm | - | 0 W/m² | - |
| 1778008924 | 12.22° C | 90% | 1011.3 hPa | 0.25 mm | - | 0 W/m² | - |
| 1778008085 | 12.22° C | 90% | 1011.1 hPa | 0 mm | - | 0 W/m² | - |
| 1778007965 | 12.22° C | 89% | 1011.1 hPa | 0 mm | - | 0 W/m² | - |
| 1778007184 | 12.22° C | 89% | 1010.9 hPa | 0 mm | - | 0 W/m² | - |
| 1778007004 | 12.22° C | 89% | 1010.9 hPa | 0.25 mm | - | 0 W/m² | - |
| 1778006884 | 12.22° C | 89% | 1010.9 hPa | 0.25 mm | - | 0 W/m² | - |
| 1778005804 | 12.22° C | 89% | 1010.9 hPa | 0.25 mm | - | 0 W/m² | - |
| 1778005564 | 12.22° C | 89% | 1010.9 hPa | 0.25 mm | - | 0 W/m² | - |
| 1778005324 | 12.22° C | 89% | 1011 hPa | 0.25 mm | - | 0 W/m² | - |
| 1778005084 | 12.22° C | 89% | 1011 hPa | 0.25 mm | - | 0 W/m² | - |
| 1778005024 | 12.22° C | 90% | 1010.9 hPa | 0.25 mm | - | 0 W/m² | - |
| 1778004844 | 12.22° C | 89% | 1010.9 hPa | 0.25 mm | - | 0 W/m² | - |
| 1778004784 | 12.22° C | 89% | 1010.9 hPa | 0.25 mm | - | 0 W/m² | - |
| 1778004489 | 12.22° C | 90% | 1010.9 hPa | 0.25 mm | - | 0 W/m² | - |
| 1778004005 | 12.22° C | 89% | 1011 hPa | 0.25 mm | - | 5 W/m² | - |
| 1778003044 | 12.22° C | 89% | 1010.8 hPa | 0 mm | - | 14 W/m² | - |
| 1778002864 | 12.22° C | 89% | 1010.9 hPa | 0 mm | - | 16 W/m² | - |
| 1778002757 | 12.22° C | 89% | 1010.9 hPa | 0 mm | - | 18 W/m² | - |
| 1778002624 | 12.22° C | 89% | 1011 hPa | 0 mm | - | 19 W/m² | - |
| 1778002505 | 12.22° C | 89% | 1010.9 hPa | 0 mm | - | 19 W/m² | - |
| 1778001604 | 12.22° C | 89% | 1010.9 hPa | 0 mm | - | 21 W/m² | - |
| 1778001544 | 12.22° C | 90% | 1011 hPa | 0 mm | - | 21 W/m² | - |
| 1778001244 | 12.22° C | 89% | 1011 hPa | 0 mm | - | 25 W/m² | - |
* Rain latest hour (hover to see other rain measurements)
** Current wind speed in m/s (hover to see current wind gust speed)